CW9236 Weather Reports


time (UTC)temp
C
wind
direction
speed
KPH
gust
KPH
rain 1hr
cm
rain 24hr
cm
rain mn
cm
humidity
%
barometer
mb
20260506130010 23 267 1.6 4.8 0.00 0.00 0.00 93 1010.2
20260506125506 23 84 0.0 4.8 0.00 0.00 0.00 93 1010.2
20260506125008 23 86 1.6 4.8 0.00 0.00 0.00 93 1010.2
20260506124519 23 92 0.0 4.8 0.00 0.00 0.00 94 1010.1
20260506124009 23 93 0.0 3.2 0.00 0.00 0.00 94 1010.0
20260506123509 23 284 0.0 3.2 0.00 0.00 0.00 94 1010.0
20260506123035 23 88 0.0 3.2 0.00 0.00 0.00 94 1010.0
20260506122511 23 106 0.0 1.6 0.00 0.00 0.00 93 1010.0
20260506122009 23 134 0.0 1.6 0.00 0.00 0.00 93 1010.0
20260506121527 23 134 0.0 1.6 0.00 0.00 0.00 93 1009.9
20260506121004 23 138 0.0 1.6 0.00 0.00 0.00 93 1009.8
20260506120507 23 165 0.0 1.6 0.00 0.00 0.00 93 1009.9
20260506120023 23 196 0.0 1.6 0.00 0.00 0.00 93 1009.9
20260506115514 23 94 0.0 1.6 0.00 0.00 0.00 93 1009.7
20260506115012 23 63 0.0 1.6 0.00 0.00 0.00 93 1009.6
20260506114521 23 63 0.0 0.0 0.00 0.00 0.00 93 1009.6
20260506114012 23 63 0.0 1.6 0.00 0.00 0.00 93 1009.6
20260506113511 23 63 0.0 1.6 0.00 0.00 0.00 93 1009.6
20260506113028 23 63 0.0 1.6 0.00 0.00 0.00 93 1009.5
20260506112508 23 63 0.0 1.6 0.00 0.00 0.00 93 1009.4
20260506112010 23 63 0.0 3.2 0.00 0.00 0.00 93 1009.5
20260506111506 23 63 0.0 6.4 0.00 0.00 0.00 93 1009.4
20260506111008 23 74 0.0 6.4 0.00 0.00 0.00 93 1009.2
20260506110509 23 294 0.0 3.2 0.00 0.00 0.00 93 1009.0
20260506110007 23 76 0.0 3.2 0.00 0.00 0.00 93 1008.9
20260506105502 23 84 1.6 3.2 0.00 0.00 0.00 93 1009.0
20260506105004 23 70 0.0 3.2 0.00 0.00 0.00 93 1009.0
20260506104504 23 83 1.6 4.8 0.00 0.00 0.00 93 1008.8
20260506104003 23 43 0.0 6.4 0.00 0.00 0.00 92 1008.8
20260506103504 23 54 1.6 6.4 0.00 0.00 0.00 92 1008.8
20260506103008 23 80 1.6 4.8 0.00 0.00 0.00 92 1008.8
20260506102506 23 71 1.6 4.8 0.00 0.00 0.00 92 1008.8
20260506102005 23 82 0.0 4.8 0.00 0.00 0.00 92 1008.8
20260506101508 23 75 1.6 4.8 0.00 0.00 0.00 91 1008.9
20260506101004 23 78 0.0 4.8 0.00 0.00 0.00 90 1008.9
20260506100505 23 73 0.0 6.4 0.00 0.00 0.00 90 1009.0
20260506100017 23 92 1.6 6.4 0.00 0.00 0.00 90 1009.0
20260506095503 23 90 0.0 6.4 0.00 0.00 0.00 89 1008.8
20260506095003 24 71 0.0 4.8 0.00 0.00 0.00 89 1008.8
20260506094508 24 100 1.6 6.4 0.00 0.00 0.00 89 1008.7
20260506094004 24 86 1.6 6.4 0.00 0.00 0.00 89 1008.6
20260506093507 24 49 1.6 8.0 0.00 0.00 0.00 89 1008.5
20260506093010 24 64 3.2 8.0 0.00 0.00 0.00 89 1008.5
20260506092504 24 63 1.6 8.0 0.00 0.00 0.00 89 1008.4
20260506092004 24 91 3.2 6.4 0.00 0.00 0.00 89 1008.4
20260506091512 24 60 1.6 6.4 0.00 0.00 0.00 89 1008.5
20260506091010 24 53 1.6 9.7 0.00 0.00 0.00 89 1008.5
20260506090506 24 69 3.2 9.7 0.00 0.00 0.00 89 1008.4
20260506090004 24 59 1.6 6.4 0.00 0.00 0.00 89 1008.4
20260506085508 24 90 1.6 4.8 0.00 0.00 0.00 89 1008.6
20260506085004 24 70 1.6 6.4 0.00 0.00 0.00 89 1008.6
20260506084508 24 92 1.6 6.4 0.00 0.00 0.00 89 1008.7
20260506084004 24 76 0.0 6.4 0.00 0.00 0.00 89 1008.7
20260506083504 24 67 1.6 6.4 0.00 0.00 0.00 89 1008.7
20260506082508 24 83 1.6 6.4 0.00 0.00 0.00 89 1008.8
20260506082009 24 71 1.6 6.4 0.00 0.00 0.00 89 1008.8
20260506081515 24 76 1.6 4.8 0.00 0.00 0.00 89 1008.9
20260506081007 24 67 1.6 4.8 0.00 0.00 0.00 89 1008.9
20260506080504 24 70 0.0 4.8 0.00 0.00 0.00 89 1009.1
20260506073507 24 88 1.6 6.4 0.00 0.00 0.00 89 1009.2
20260506073013 24 70 1.6 4.8 0.00 0.00 0.00 89 1009.4
20260506072509 24 66 0.0 4.8 0.00 0.00 0.00 89 1009.5
20260506072008 24 69 0.0 4.8 0.00 0.00 0.00 89 1009.4
20260506071005 24 84 1.6 4.8 0.00 0.00 0.00 88 1009.5
20260506070507 24 84 1.6 4.8 0.00 0.00 0.00 89 1009.5
20260506062009 24 69 0.0 4.8 0.00 0.00 0.00 89 1009.7
20260506061514 24 76 1.6 8.0 0.00 0.00 0.00 89 1009.8
20260506060505 24 88 3.2 6.4 0.00 0.00 0.00 88 1009.8
20260506051008 25 72 1.6 6.4 0.00 0.00 0.00 87 1009.8
20260506050507 25 73 0.0 6.4 0.00 0.00 0.00 87 1009.9
20260506045004 25 69 3.2 8.0 0.00 0.00 0.00 86 1009.7
20260506044516 25 65 1.6 8.0 0.00 0.00 0.00 86 1009.6
20260506044007 25 80 3.2 8.0 0.00 0.00 0.00 86 1009.4
20260506043510 25 66 3.2 8.0 0.00 0.00 0.00 86 1009.5
20260506043021 25 325 0.0 4.8 0.00 0.00 0.00 85 1009.7
20260506042508 25 80 1.6 4.8 0.00 0.00 0.00 85 1009.8
20260506042013 25 96 0.0 8.0 0.00 0.00 0.00 85 1009.8
20260506041519 25 75 1.6 8.0 0.00 0.00 0.00 84 1009.7
20260506041007 25 74 3.2 6.4 0.00 0.00 0.00 84 1009.6
20260506040505 25 76 1.6 8.0 0.00 0.00 0.00 84 1009.6
20260506040012 25 60 1.6 8.0 0.00 0.00 0.00 84 1009.5
20260506035504 25 74 1.6 8.0 0.00 0.00 0.00 84 1009.5
20260506035009 25 65 1.6 9.7 0.00 0.00 0.00 84 1009.3
20260506034518 25 68 3.2 9.7 0.00 0.00 0.00 84 1009.2
20260506034008 25 69 1.6 8.0 0.00 0.00 0.00 84 1009.2
20260506033514 25 76 1.6 6.4 0.00 0.00 0.00 84 1009.3
20260506033025 25 88 3.2 6.4 0.00 0.00 0.00 84 1009.3
20260506032506 25 55 1.6 6.4 0.00 0.00 0.00 84 1009.3
20260506032009 25 76 1.6 11.3 0.00 0.00 0.00 84 1009.2
20260506031532 25 69 1.6 11.3 0.00 0.00 0.00 83 1009.1
20260506031006 25 63 1.6 11.3 0.00 0.00 0.00 83 1009.0
20260506030503 25 69 3.2 11.3 0.00 0.00 0.00 83 1008.9
20260506024527 25 113 4.8 11.3 0.00 0.00 0.00 83 1008.8
20260506024008 25 59 1.6 11.3 0.00 0.00 0.00 82 1008.7
20260506023508 25 69 3.2 9.7 0.00 0.00 0.00 82 1008.6
20260506023020 25 88 1.6 9.7 0.00 0.00 0.00 82 1008.5
20260506022509 25 74 3.2 12.9 0.00 0.00 0.00 81 1008.4
20260506022009 26 82 4.8 12.9 0.00 0.00 0.00 81 1008.5
20260506021519 26 63 3.2 9.7 0.00 0.00 0.00 81 1008.3
20260506021006 26 67 3.2 6.4 0.00 0.00 0.00 81 1008.3
20260506020506 26 53 0.0 6.4 0.00 0.00 0.00 81 1008.2
20260506020016 26 56 1.6 6.4 0.00 0.00 0.00 80 1008.2
20260506015510 26 80 1.6 6.4 0.00 0.00 0.00 80 1008.1
20260506015007 26 68 1.6 6.4 0.00 0.00 0.00 80 1008.1
20260506014519 26 76 3.2 6.4 0.00 0.00 0.00 80 1008.1
20260506014008 26 65 0.0 9.7 0.00 0.00 0.00 79 1008.1
20260506013023 26 63 1.6 8.0 0.00 0.00 0.00 79 1008.0
20260506012508 26 87 1.6 8.0 0.00 0.00 0.00 79 1008.0
20260506012010 26 37 3.2 8.0 0.00 0.00 0.00 79 1007.8
20260506011515 26 72 3.2 8.0 0.00 0.00 0.00 78 1007.6
20260506011003 26 88 1.6 6.4 0.00 0.00 0.00 78 1007.6
20260506010511 26 65 1.6 6.4 0.00 0.00 0.00 77 1007.5
20260506010043 26 59 3.2 9.7 0.00 0.00 0.00 77 1007.3
20260506005509 26 92 3.2 9.7 0.00 0.00 0.00 77 1007.4
20260506005006 26 78 1.6 9.7 0.00 0.00 0.00 76 1007.3
20260506004522 26 60 1.6 8.0 0.00 0.00 0.00 76 1007.3
20260506004010 26 69 3.2 8.0 0.00 0.00 0.00 76 1007.2
20260506003502 26 74 1.6 8.0 0.00 0.00 0.00 76 1007.2
20260506003008 26 61 1.6 6.4 0.00 0.00 0.00 76 1007.2
20260506002504 26 88 1.6 8.0 0.00 0.00 0.00 77 1007.2
20260506002005 26 64 1.6 8.0 0.00 0.00 0.00 76 1007.1
20260506001513 26 65 1.6 8.0 0.00 0.00 0.00 76 1007.1
20260506001006 27 68 3.2 8.0 0.00 0.00 0.00 76 1007.1
20260506000508 27 67 3.2 11.3 0.00 0.00 0.00 76 1007.1
20260506000020 27 72 3.2 11.3 0.00 0.00 0.00 76 1007.2
20260505235508 27 72 3.2 14.5 0.00 0.00 0.00 75 1007.2
20260505235011 27 68 3.2 14.5 0.00 0.00 0.00 75 1007.2
20260505234522 27 94 6.4 12.9 0.00 0.00 0.00 75 1007.1
20260505234004 27 68 3.2 9.7 0.00 0.00 0.00 76 1007.0
20260505233504 27 76 3.2 8.0 0.00 0.00 0.00 76 1007.0
20260505233011 27 80 3.2 8.0 0.00 0.00 0.00 75 1007.1
20260505232507 27 86 3.2 8.0 0.00 0.00 0.00 76 1007.1
20260505232005 27 57 3.2 8.0 0.00 0.00 0.00 76 1007.1
20260505231518 27 55 3.2 8.0 0.00 0.00 0.00 75 1007.1
20260505231005 27 70 3.2 9.7 0.00 0.00 0.00 75 1007.1
20260505230506 27 56 3.2 11.3 0.00 0.00 0.00 75 1007.1
20260505230026 27 72 3.2 11.3 0.00 0.00 0.00 74 1007.2
20260505225510 27 74 3.2 9.7 0.00 0.00 0.00 74 1007.2
20260505225009 27 69 4.8 9.7 0.00 0.00 0.00 74 1007.2
20260505224522 27 32 3.2 12.9 0.00 0.00 0.00 74 1007.2
20260505224004 27 57 1.6 12.9 0.00 0.00 0.00 73 1007.2
20260505223507 27 73 3.2 11.3 0.00 0.00 0.00 73 1007.1
20260505223010 28 75 4.8 11.3 0.00 0.00 0.00 72 1007.3
20260505222508 28 70 1.6 11.3 0.00 0.00 0.00 72 1007.2
20260505222010 28 66 3.2 11.3 0.00 0.00 0.00 72 1007.3
20260505221520 28 67 4.8 9.7 0.00 0.00 0.00 72 1007.2
20260505215508 28 43 4.8 9.7 0.00 0.00 0.00 70 1007.3
20260505215011 28 89 3.2 16.1 0.00 0.00 0.00 71 1007.5
20260505214523 28 51 3.2 16.1 0.00 0.00 0.00 71 1007.4
20260505214008 28 78 3.2 6.4 0.00 0.00 0.00 72 1007.5
20260505212511 28 82 4.8 12.9 0.00 0.00 0.00 70 1007.7
20260505211522 28 80 3.2 11.3 0.00 0.00 0.00 72 1007.8
20260505210511 28 72 4.8 11.3 0.00 0.00 0.00 71 1007.9
20260505210025 28 275 3.2 9.7 0.00 0.00 0.00 71 1008.0
20260505204510 28 87 3.2 16.1 0.00 0.00 0.00 70 1008.2
20260505204010 28 93 4.8 16.1 0.00 0.00 0.00 70 1008.2
20260505203507 28 50 3.2 8.0 0.00 0.00 0.00 70 1008.3
20260505203027 29 84 1.6 8.0 0.00 0.00 0.00 70 1008.4
20260505202512 28 279 3.2 8.0 0.00 0.00 0.00 71 1008.3
20260505202008 28 103 4.8 8.0 0.00 0.00 0.00 71 1008.5
20260505201522 28 55 1.6 9.7 0.00 0.00 0.00 73 1008.6
20260505201009 28 63 1.6 9.7 0.00 0.00 0.00 74 1008.7
20260505200511 28 91 0.0 6.4 0.00 0.00 0.00 74 1008.9
20260505200025 28 56 1.6 9.7 0.00 0.00 0.00 74 1008.9
20260505195511 28 69 1.6 14.5 0.00 0.00 0.00 74 1009.0
20260505194512 28 63 3.2 14.5 0.00 0.00 0.00 73 1009.1
20260505194004 28 84 4.8 12.9 0.00 0.00 0.00 73 1009.1
20260505193509 27 69 4.8 11.3 0.00 0.00 0.00 74 1009.1
20260505193020 27 50 4.8 11.3 0.00 0.00 0.00 74 1009.1
20260505192509 27 281 1.6 6.4 0.00 0.00 0.00 73 1009.1
20260505192012 28 49 1.6 8.0 0.00 0.00 0.00 72 1009.1
20260505191523 28 62 3.2 8.0 0.00 0.00 0.00 73 1009.1
20260505191009 28 51 1.6 8.0 0.00 0.00 0.00 74 1009.2
20260505190512 27 32 1.6 9.7 0.00 0.00 0.00 74 1009.2
20260505190034 27 53 3.2 11.3 0.00 0.00 0.00 74 1009.1
20260505185513 27 69 1.6 11.3 0.00 0.00 0.00 74 1009.2
20260505185005 27 51 1.6 9.7 0.00 0.00 0.00 75 1009.2
20260505184514 27 271 1.6 9.7 0.00 0.00 0.00 76 1009.3
20260505184007 27 271 0.0 9.7 0.00 0.00 0.00 76 1009.4
20260505183508 27 79 1.6 6.4 0.00 0.00 0.00 76 1009.4
20260505183018 27 53 1.6 6.4 0.00 0.00 0.00 76 1009.4
20260505182507 27 65 1.6 8.0 0.00 0.00 0.00 76 1009.4
20260505182013 27 269 3.2 8.0 0.00 0.00 0.00 76 1009.4
20260505181527 27 63 3.2 8.0 0.00 0.00 0.00 76 1009.5
20260505181011 27 57 0.0 9.7 0.00 0.00 0.00 77 1009.6
20260505180511 27 59 3.2 9.7 0.00 0.00 0.00 76 1009.5
20260505180026 27 54 3.2 9.7 0.00 0.00 0.00 77 1009.5
20260505175510 26 44 1.6 6.4 0.00 0.00 0.00 78 1009.6
20260505175014 26 49 0.0 9.7 0.00 0.00 0.00 79 1009.7
20260505174517 26 67 1.6 9.7 0.00 0.00 0.00 78 1009.7
20260505174007 26 71 3.2 9.7 0.00 0.00 0.00 78 1009.8
20260505173507 26 24 1.6 6.4 0.00 0.00 0.00 79 1009.8
20260505173034 26 80 1.6 6.4 0.00 0.00 0.00 79 1009.9
20260505172511 26 22 1.6 4.8 0.00 0.00 0.00 80 1010.0
20260505172010 26 53 0.0 4.8 0.00 0.00 0.00 80 1010.0
20260505171538 26 58 0.0 6.4 0.00 0.00 0.00 80 1010.0
20260505171011 26 34 1.6 9.7 0.00 0.00 0.00 80 1010.0
20260505170510 26 38 3.2 9.7 0.00 0.00 0.00 81 1010.1
20260505170027 26 40 1.6 6.4 0.00 0.00 0.00 80 1010.0
20260505165511 26 59 3.2 8.0 0.00 0.00 0.00 80 1010.1
20260505165004 26 60 3.2 8.0 0.00 0.00 0.00 80 1010.1
20260505164519 26 63 3.2 8.0 0.00 0.00 0.00 80 1010.1
20260505164007 26 250 0.0 4.8 0.00 0.00 0.00 81 1010.1
20260505163508 26 246 1.6 8.0 0.00 0.00 0.00 81 1010.0
20260505163025 26 55 1.6 8.0 0.00 0.00 0.00 81 1010.0
20260505162509 26 36 0.0 6.4 0.00 0.00 0.00 82 1010.1
20260505162011 25 59 1.6 6.4 0.00 0.00 0.00 82 1010.0
20260505161526 25 44 1.6 6.4 0.00 0.00 0.00 82 1010.0
20260505161011 25 277 0.0 4.8 0.00 0.00 0.00 83 1010.0
20260505160515 25 65 1.6 9.7 0.00 0.00 0.00 82 1010.0
20260505152504 23 54 1.6 6.4 0.00 0.00 0.00 87 1009.8
20260505152004 23 49 1.6 6.4 0.00 0.00 0.00 86 1009.8
20260505151511 24 82 1.6 4.8 0.00 0.00 0.00 86 1009.8
20260505151004 24 67 0.0 9.7 0.00 0.00 0.00 85 1009.7
20260505150507 24 73 1.6 9.7 0.00 0.00 0.00 85 1009.7
20260505140508 24 56 3.2 9.7 0.00 0.00 0.00 85 1009.5